Tracking 19846 objects as of 19-Sep-2019
HD Live streaming from Space Station
objects crossing your sky now

D STAR ONE (EXOCONNECT)

Track D STAR ONE (EXOCONNECT) now!
10-day predictions


NORAD ID: 44410
Int'l Code: 2019-038AA
Perigee: 521.5 km
Apogee: 552.8 km
Inclination: 97.5 °
Period: 95.2 minutes
Semi major axis: 6908 km
RCS: Unknown
Launch date: July 5, 2019
Source: Germany (GER)
Launch site: VOSTOCHNY COSMODROME (VOSTO)
aabbcc
Your satellite tracking list
Your tracking list is empty




NASA's NSSDC Master Catalog

Two Line Element Set (TLE):
1 44410U 19038AA  19261.41679602  .00001161  00000-0  70974-4 0  9998
2 44410  97.4978 221.9485 0022662 356.4979   3.6089 15.12018523 11322
Source of the keplerian elements: AFSPC